COSMOS 860

Satellite information

Favourite Embed

Satellite Type and Status

PAYLOADIN ORBIT

Key statistics

Satellite COSMOS 860 at a glance.

Uptime

17955

Days in orbit

Revolutions

≈ 13.8

Per day

Orbit

LEO

Low Earth Orbit

Inclination

64.7

Latest

Satellite identification and parameters

Extended collection of information and parameters for COSMOS 860.

Object identification

Identified? True

Debris? False

Object name: COSMOS 860

International designator: 1976-103A

Object number (NORAD): 9486

Object ID (CCSDS): 9486

Country: COMMONWEALTH OF INDEPENDENT STATES (CIS)

Current information (Y/N): Y

RCS size: LARGE

Orbital parameters

Period: 104.242 minutes

Inclination: 64.7015 deg

SMA: 7337.047 km

Apoapsis: 1017.064 km

Periapsis: 900.76 km

RAAN: 337.7674 deg

Eccentricy: 0.00792585

Argument of periapsis: 253.4267 deg

Mean anomaly: 105.8074 deg

Mean motion: 13.81404322 rev/day

Mean motion (dot): -0.00000037 rev/day2

B* drag term: 0.000049164847 1/REarth

Two-line elements (TLE)

Creation date: Dec. 14, 2025, 3:07 a.m.

Reference frame: TEME

Reference center: EARTH

Epoch: Dec. 13, 2025, 9:07 a.m. UTC

TLE line 0: 0 COSMOS 860

TLE line 1: 1 09486U 76103A 25347.38047368 -.00000037 00000-0 49165-4 0 9994

TLE line 2: 2 09486 64.7015 337.7674 0079258 253.4267 105.8074 13.81404322857271

Live tracking on map

Real-time ground track for satellite COSMOS 860.

In-orbit conjunctions

A list of the most updated potential collisions computed for object COSMOS 860.

Target Orbit TCA Probability of collision Miss distance Type
FENGYUN 1C DEB SSO 2024-10-22 03:29:11 0.0005929499 342.0 (m) DEBRIS
CZ-6A DEB SSO 2024-09-06 09:37:20 0.0007099571 463.0 (m) DEBRIS
NIMBUS 2 DEB SSO 2024-08-18 01:03:03 0.0001051353 427.0 (m) DEBRIS

Associated space launch

Active radar satellite for ocean surveillance powered by a nuclear reactor.

COSMOS 860 was lifted into orbit during the mission ‘Tsiklon-2 | US-A 12’, on board a Tsiklon-2 space rocket.

The launch took place on Oct. 17, 1976, 6:06 p.m. from 90.

For more information about the launch, click the button.

Launch to space Tsiklon-2 | US-A 12
Tsiklon-2 | US-A 12

Agency: N/A

Status: Launch Successful

Launch date: Oct. 17, 1976, 6:06 p.m. UTC

Rocket: Tsiklon-2

Launch pad: 90

Location: Baikonur Cosmodrome, Republic of Kazakhstan

...

Latest news about this satellite

There are no fresh news available about this satellite. Check back as we update our databases every day.


Newsletter sign-up

Weekly statistics, charts and insights to help you stay on top of the space industry.